[[{"header":{"parameterUnit":"m.s-1","parameterCategory":1,"la1":30.2991,"la2":30.254,"lo1":-89.0895,"lo2":-89.0444,"dy":0.0017,"dx":0.0017,"nx":28,"ny":28,"refTime":"2025-03-20T03:00:00:Z","depth":0,"parameterNumber":2,"parameterNumberName":"U-component_of_WINDS"},"data":[0,0,0,0,0,0,0,0,0,0,0,0,0,0,0,0,0,0,0,0,0,0,0,0,0,0,0,0,0,0,0,0,0,0,0,0,0,0,0,0,0,0,0,0,0,0,0,0,0,0,0,0,0,0,0,0,0,0,2.9649,2.965,0,2.9654,2.9654,2.9654,2.9558,2.9555,2.9553,2.955,2.9557,2.956,2.9562,0,0,0,0,0,0,0,0,0,0,0,0,0,2.9557,2.9559,2.9649,2.965,2.965,2.9654,2.9654,2.9654,2.9558,2.9555,2.9552,2.9549,2.9556,2.9559,2.9562,0,0,0,0,0,0,0,0,0,0,0,0,0,2.9583,2.956,2.9649,2.9602,2.9598,2.9654,2.9654,2.9654,2.9559,2.9555,2.9551,2.9547,2.9555,2.9559,2.9563,2.9665,0,0,2.9575,2.9576,0,0,0,0,0,0,0,0,2.9582,2.9587,2.9609,2.9606,2.9601,2.9601,2.9624,2.9658,2.956,2.9574,2.955,2.9545,2.9575,2.9577,2.9587,2.9665,2.9666,2.9575,2.9577,2.9579,2.958,0,0,0,0,0,0,0,2.958,2.9586,2.9651,2.961,2.9605,2.958,2.958,2.963,2.9596,2.9572,2.9565,2.9567,2.9572,2.9583,2.9586,2.9666,2.9575,2.9578,2.9581,2.9582,2.9823,2.9826,0,0,0,0,0,0,2.9584,2.9585,2.9651,2.9651,2.9581,2.9585,2.9585,2.9605,2.9595,2.959,2.957,2.9562,2.9578,2.9582,2.9586,2.97,2.9579,2.9583,2.9585,2.9819,2.9823,2.9828,0,0,0,0,0,0,2.9583,2.9591,2.9651,2.9616,2.9622,2.9591,2.9615,2.9607,2.9618,2.9594,2.9588,2.9588,2.9575,2.958,2.9644,2.9699,2.9585,2.9588,2.9814,2.982,2.9826,2.9933,0,0,0,0,0,0,2.9581,2.9591,2.963,2.9618,2.9624,2.971,2.9618,2.961,2.9625,2.9615,2.9609,2.9604,2.9573,2.9639,2.9648,2.9703,2.9591,2.9809,2.9817,2.9824,2.9925,2.9942,2.9957,0,0,0,0,0,2.9578,2.9662,2.9633,2.9641,2.9672,2.9714,2.9717,2.9679,2.963,2.9668,2.9651,2.9604,2.9693,2.9647,2.9656,2.9713,2.9805,2.9814,2.9823,2.9917,2.9939,2.9957,0,0,0,0,0,0,2.9684,2.966,2.9627,2.971,2.9714,2.9697,2.9744,2.9704,2.9723,2.9713,2.9665,2.9665,2.9735,2.9731,2.968,2.9808,2.974,2.9751,2.9808,2.9828,2.9845,2.9843,2.9594,0,0,0,0,0,2.9717,2.9753,2.973,2.9805,2.9809,2.9777,2.9793,2.9763,2.9766,2.9767,2.9756,2.9761,2.9789,2.9809,2.9834,2.9924,2.9919,2.9967,2.9984,2.9997,3.0007,3.0049,3.0069,2.9858,2.9858,2.9857,0,0,2.9786,2.9777,2.9803,2.9826,2.9826,2.9862,2.9779,2.9823,2.9848,2.9774,2.9832,2.9825,2.9827,2.9903,2.9936,2.9901,3.0064,3.0009,3.002,3.0022,3.0061,3.0081,3.0098,2.9864,2.9863,2.9862,0,0,2.9929,2.9928,2.9987,2.9988,2.9987,2.9965,2.9979,2.9968,2.9958,3.0016,2.996,2.999,3.0042,3.0043,3.0052,3.0191,3.0146,3.0201,3.0285,3.0327,3.0344,3.0358,3.0404,3.0422,3.0211,3.0211,3.0212,0,3.0015,3.0067,3.0024,3.0069,3.008,3.0012,3.0071,3.0074,3.0083,3.0091,3.0052,3.0111,3.0109,3.0182,3.0215,3.0226,3.0238,3.02,3.0345,3.0359,3.0372,3.0415,3.0433,3.0218,3.0217,3.0216,3.0216,0,3.017,3.0207,3.0256,3.0262,3.0279,3.0332,3.0295,3.0316,3.0284,3.0265,3.0323,3.0316,3.0336,3.0352,3.0323,3.042,3.0398,3.0353,3.0283,3.0399,3.0438,3.0455,3.0227,3.0224,3.0223,3.0221,0,0,3.0382,3.036,3.0379,3.0379,3.0372,3.0399,3.0448,3.0466,3.0483,3.0491,3.0528,3.0571,3.0528,3.0537,3.0507,3.0544,3.0649,3.0493,3.0492,3.0519,3.0751,3.0783,3.0803,3.062,3.0623,3.0626,3.075,0,3.0517,3.0596,3.0557,3.0641,3.0672,3.0607,3.0648,3.0648,3.0631,3.0655,3.0637,3.0666,3.0609,3.0613,3.0647,3.0629,3.0695,3.062,3.0652,3.0654,3.0651,3.0824,3.0859,3.0976,3.0765,3.0768,3.077,0,3.0686,3.0696,3.0783,3.0765,3.0777,3.0815,3.0826,3.085,3.0848,3.0832,3.0841,3.08,3.0845,3.0777,3.0836,3.0786,3.0797,3.079,3.0793,3.0793,3.0717,3.0825,3.1013,3.1029,3.0795,3.0793,3.0791,0,3.0825,3.0862,3.0917,3.092,3.0902,3.0929,3.0924,3.0917,3.0929,3.0939,3.0945,3.0962,3.097,3.0983,3.0947,3.0902,3.101,3.094,3.0996,3.0997,3.102,3.1019,3.1209,3.1033,3.1033,3.1033,3.1032,0,3.0978,3.1033,3.0979,3.1013,3.1071,3.1024,3.1083,3.107,3.1064,3.1093,3.104,3.1068,3.1021,3.1045,3.1018,3.1068,3.1074,3.1061,3.1053,3.1064,3.1065,3.1069,3.1058,3.1037,3.1036,3.1036,3.1035,0,3.1143,3.111,3.1165,3.1142,3.1138,3.1181,3.1161,3.1191,3.1169,3.1206,3.1213,3.1179,3.1203,3.117,3.1192,3.1173,3.1241,3.1223,3.1242,3.1235,3.1291,3.1285,3.1488,3.1511,3.1324,3.1326,3.1328,0,3.1242,3.1281,3.1262,3.1276,3.1272,3.1298,3.1308,3.1264,3.1277,3.1274,3.1304,3.1323,3.1336,3.1378,3.1356,3.1371,3.135,3.142,3.1352,3.1361,3.1346,3.1343,3.1345,3.1433,3.1436,3.1437,3.1439,0,3.1418,3.1398,3.1415,3.1425,3.1439,3.1445,3.1448,3.1463,3.1416,3.1434,3.1457,3.1467,3.1487,3.1506,3.1515,3.1508,3.1465,3.1461,3.1474,3.1484,3.1492,3.1484,3.1276,3.1456,3.1454,3.1453,3.1452,3.1451,3.155,3.158,3.1569,3.1589,3.1585,3.1588,3.1613,3.1593,3.1611,3.1622,3.1596,3.1624,3.1617,3.1624,3.1622,3.1643,3.1613,3.1633,3.1638,3.1642,3.1649,3.1491,3.1646,3.1645,3.1645,3.1644,3.1644,0,3.172,3.1709,3.1727,3.173,3.1745,3.1702,3.1701,3.1716,3.1742,3.1738,3.1751,3.1775,3.1793,3.1771,3.1784,3.1805,3.1785,3.1809,3.1806,3.1804,3.1678,3.1663,3.1825,3.1825,3.1825,3.1825,3.1825,3.1824,3.181,3.1857,3.1835,3.1879,3.1868,3.1894,3.1897,3.1898,3.1894,3.1923,3.1937,3.1922,3.191,3.1921,3.1934,3.1927,3.1933,3.1964,3.1949,3.1831,3.1814,3.1797,3.1782,3.1966,3.1966,3.2073,3.2074,3.2075]},{"header":{"parameterUnit":"m.s-1","parameterCategory":1,"la1":30.2991,"la2":30.254,"lo1":-89.0895,"lo2":-89.0444,"dy":0.0017,"dx":0.0017,"nx":28,"ny":28,"refTime":"2025-03-20T03:00:00:Z","depth":0,"parameterNumber":3,"parameterNumberName":"V-component_of_WINDS"},"data":[0,0,0,0,0,0,0,0,0,0,0,0,0,0,0,0,0,0,0,0,0,0,0,0,0,0,0,0,0,0,0,0,0,0,0,0,0,0,0,0,0,0,0,0,0,0,0,0,0,0,0,0,0,0,0,0,0,0,5.5105,5.5107,0,5.5205,5.5207,5.5208,5.516,5.5158,5.5155,5.5153,5.5251,5.5255,5.526,0,0,0,0,0,0,0,0,0,0,0,0,0,5.4867,5.4872,5.5105,5.5107,5.5108,5.5205,5.5207,5.5208,5.5161,5.5158,5.5154,5.5152,5.5249,5.5255,5.5261,0,0,0,0,0,0,0,0,0,0,0,0,0,5.4969,5.4873,5.5105,5.5096,5.5096,5.5205,5.5207,5.5208,5.5161,5.5157,5.5154,5.515,5.5247,5.5254,5.5262,5.5384,0,0,5.5284,5.5288,0,0,0,0,0,0,0,0,5.4963,5.4978,5.5096,5.5097,5.5097,5.5167,5.5158,5.5267,5.5162,5.5137,5.5153,5.5148,5.5225,5.5234,5.5261,5.5388,5.5392,5.5285,5.529,5.5293,5.5295,0,0,0,0,0,0,0,5.4956,5.4973,5.5145,5.5098,5.5099,5.5085,5.5095,5.5179,5.5201,5.5138,5.5135,5.5148,5.5225,5.5254,5.5263,5.5394,5.5285,5.5291,5.5296,5.5299,5.5621,5.5625,0,0,0,0,0,0,5.495,5.4968,5.5142,5.5148,5.502,5.5092,5.5104,5.5148,5.52,5.5204,5.5151,5.5145,5.5243,5.5255,5.5267,5.541,5.5293,5.53,5.5304,5.5617,5.5622,5.5627,0,0,0,0,0,0,5.4945,5.4966,5.5138,5.5057,5.5078,5.5101,5.5151,5.5152,5.5181,5.521,5.5213,5.5177,5.5241,5.5256,5.5354,5.5412,5.5303,5.531,5.5613,5.5619,5.5625,5.5699,0,0,0,0,0,0,5.4939,5.4965,5.5013,5.5059,5.5082,5.5226,5.5154,5.5157,5.5195,5.5188,5.5235,5.5239,5.5239,5.5343,5.5362,5.5421,5.5316,5.5607,5.5615,5.5623,5.5691,5.5707,5.572,0,0,0,0,0,5.4931,5.503,5.5016,5.5037,5.5143,5.5229,5.5243,5.5242,5.52,5.5247,5.5265,5.5238,5.5404,5.5354,5.5374,5.5436,5.5604,5.5613,5.5622,5.5685,5.5704,5.572,0,0,0,0,0,0,5.499,5.5036,5.5021,5.5138,5.518,5.5221,5.5281,5.5263,5.5316,5.5308,5.5303,5.5314,5.5415,5.5436,5.538,5.5555,5.5497,5.5511,5.5538,5.5556,5.557,5.5562,5.5322,0,0,0,0,0,5.5017,5.5085,5.5121,5.5221,5.5243,5.5258,5.5296,5.5292,5.5334,5.5351,5.5376,5.5417,5.5478,5.5519,5.5577,5.5695,5.5702,5.5747,5.5762,5.5773,5.5784,5.5844,5.5864,5.5657,5.5657,5.5657,0,0,5.5073,5.5106,5.5149,5.5233,5.5265,5.5333,5.5274,5.5349,5.5398,5.5362,5.5456,5.5476,5.5521,5.5629,5.5677,5.5649,5.5843,5.5785,5.5794,5.5799,5.5856,5.5875,5.5893,5.5663,5.5662,5.5661,0,0,5.5209,5.5243,5.5328,5.5361,5.5411,5.542,5.5441,5.5484,5.5496,5.5591,5.5564,5.5622,5.5729,5.5761,5.5791,5.5937,5.5913,5.5956,5.603,5.6089,5.6105,5.6119,5.6168,5.6186,5.5968,5.5968,5.5968,0,5.5272,5.5375,5.5374,5.545,5.5486,5.5459,5.5543,5.5575,5.564,5.5665,5.5633,5.5763,5.5792,5.5905,5.5941,5.5968,5.5988,5.595,5.6103,5.6118,5.6131,5.6177,5.6196,5.5972,5.5972,5.5971,5.5971,0,5.5447,5.5519,5.5581,5.5646,5.5689,5.5769,5.5778,5.5822,5.5814,5.5826,5.592,5.5954,5.6017,5.6044,5.6036,5.6155,5.6135,5.6104,5.6044,5.6155,5.6198,5.6216,5.5979,5.5978,5.5976,5.5975,0,0,5.5623,5.5685,5.5708,5.5735,5.5787,5.5841,5.5919,5.5981,5.6017,5.6063,5.6125,5.6215,5.6185,5.622,5.6216,5.6268,5.6377,5.6229,5.623,5.6252,5.6505,5.6526,5.6547,5.6362,5.6365,5.6368,5.65,0,5.576,5.5897,5.5898,5.6023,5.6087,5.606,5.6127,5.6165,5.6178,5.6232,5.6246,5.6309,5.6267,5.6287,5.6337,5.6353,5.6427,5.6344,5.6417,5.6419,5.6403,5.657,5.6594,5.6716,5.6517,5.652,5.6522,0,5.5938,5.599,5.6122,5.6161,5.6188,5.6249,5.6304,5.6358,5.6398,5.6404,5.6442,5.6429,5.6505,5.6446,5.6548,5.6492,5.6522,5.6534,5.6538,5.6543,5.6475,5.6576,5.6756,5.6773,5.6549,5.6547,5.6545,0,5.6049,5.6151,5.6242,5.6267,5.6317,5.6359,5.6381,5.6419,5.6455,5.6503,5.6526,5.6583,5.6613,5.6655,5.6657,5.6614,5.6759,5.6701,5.6763,5.6763,5.6793,5.679,5.6977,5.6818,5.6817,5.6817,5.6817,0,5.62,5.628,5.6292,5.6348,5.6436,5.6436,5.6523,5.6541,5.6574,5.6631,5.6612,5.6665,5.6666,5.672,5.6722,5.6804,5.6819,5.6823,5.6822,5.6823,5.6822,5.6841,5.6831,5.6822,5.6821,5.682,5.6819,0,5.6337,5.6349,5.6446,5.6485,5.6496,5.6559,5.6591,5.6643,5.6654,5.6726,5.6743,5.676,5.6822,5.6828,5.6901,5.6902,5.7,5.6992,5.6987,5.6984,5.7045,5.7038,5.7247,5.7273,5.71,5.7102,5.7103,0,5.6432,5.6493,5.6538,5.6575,5.66,5.666,5.6697,5.6698,5.6737,5.6787,5.6832,5.6892,5.694,5.704,5.7057,5.7112,5.7102,5.7172,5.711,5.7108,5.7099,5.7094,5.7099,5.7183,5.7185,5.7186,5.7188,0,5.6596,5.6598,5.6653,5.6709,5.6754,5.6798,5.6839,5.687,5.6876,5.692,5.6984,5.7021,5.7094,5.7153,5.7206,5.7227,5.7207,5.7207,5.7224,5.7224,5.7217,5.7218,5.7016,5.7202,5.7201,5.72,5.7199,5.7198,5.6713,5.6764,5.6804,5.6864,5.6896,5.6934,5.6984,5.7001,5.7054,5.7114,5.7112,5.7181,5.7217,5.7287,5.7311,5.7363,5.734,5.7365,5.7371,5.7376,5.7381,5.7212,5.7374,5.7373,5.7373,5.7372,5.7372,0,5.6873,5.6897,5.6953,5.7011,5.7058,5.7037,5.7081,5.7121,5.7183,5.7219,5.7267,5.7338,5.7395,5.7416,5.7471,5.7508,5.7501,5.7522,5.7518,5.7522,5.74,5.7379,5.7528,5.7528,5.7528,5.7528,5.7528,5.7527,5.6962,5.7048,5.7054,5.7154,5.7177,5.7245,5.7271,5.7306,5.7335,5.7415,5.7463,5.7477,5.7506,5.7563,5.7613,5.7617,5.7637,5.7662,5.7662,5.7547,5.7531,5.7516,5.7496,5.7667,5.7667,5.778,5.7781,5.7781]}]]